MAUNA LOA HI US current weather conditions

sailwx.info

Wind from 210 at 8 knots gusting 19

Air temperature 10.6° C
Dewpoint 9.9° C

Last reported at 2017-Mar-01 18:34 UTC.
Time now 2017-Mar-01 20:04 UTC

Location: N 19°28' W 155°22'.
View on Google Maps.

See reports from other nearby stations

  
Tides and Currents Weather Stations Pressure Air Temp Water Temp Dewpoint Dewpoint Depression Visibility Wind Speed Wind Dir Waves Ship Positions
date/time (UTC)wind fromknots sea level pressurealtimeterstation pressurevisibilityair tempwater tempwave heightnotes
2017-Mar-01 18:34 210 8 gusting 19 10.6
2017-Mar-01 17:34 209 9 gusting 19 10.6
2017-Mar-01 16:34 203 6 gusting 13 10.6
2017-Mar-01 15:34 198 6 gusting 13 11.1
2017-Mar-01 14:34 177 6 gusting 13 11.1
2017-Mar-01 13:34 212 5 gusting 9 11.1
2017-Mar-01 12:34 213 6 gusting 10 11.1
2017-Mar-01 11:34 196 5 gusting 16 11.1
2017-Mar-01 10:34 228 7 gusting 13 10.6
2017-Mar-01 09:34 215 6 gusting 13 10.6
2017-Mar-01 08:34 192 6 gusting 13 10.6
2017-Mar-01 07:34 192 6 gusting 10 11.7
2017-Mar-01 06:34 178 4 gusting 7 11.7
2017-Mar-01 05:34 173 4 gusting 7 11.7
2017-Mar-01 04:34 148 3 gusting 7 12.2
2017-Mar-01 03:34 134 3 gusting 8 12.2
2017-Mar-01 02:34 142 3 gusting 7 12.8
2017-Mar-01 01:34 161 4 gusting 7 13.9
2017-Mar-01 00:34 167 5 gusting 9 13.9
2017-Feb-28 23:34 146 4 gusting 10 15.0
2017-Feb-28 22:34 162 3 gusting 7 17.2
2017-Feb-28 21:34 129 2 gusting 6 15.0
2017-Feb-28 20:34 230 2 gusting 7 13.9
2017-Feb-28 19:34 235 1 gusting 4 13.9
2017-Feb-28 18:34 265 2 gusting 5 12.8
2017-Feb-28 17:34 303 2 gusting 4 10.6
2017-Feb-28 16:34 302 3 gusting 7 9.4
2017-Feb-28 15:34 318 2 gusting 5 10.0
2017-Feb-28 14:34 322 2 gusting 6 10.0
2017-Feb-28 13:34 351 3 gusting 6 10.0
2017-Feb-28 12:34 309 2 gusting 3 9.4
2017-Feb-28 11:34 327 2 gusting 6 10.0
2017-Feb-28 10:34 283 2 gusting 6 10.6
2017-Feb-28 09:34 354 3 gusting 9 11.1
2017-Feb-28 08:34 010 5 gusting 8 11.1
2017-Feb-28 07:34 024 0 gusting 4 11.7
2017-Feb-28 06:34 024 0 gusting 2 11.7
2017-Feb-28 05:34 341 0 gusting 5 11.7
2017-Feb-28 04:34 013 2 gusting 6 11.7
2017-Feb-28 03:34 075 1 gusting 7 12.8
2017-Feb-28 02:34 022 3 gusting 6 12.8
2017-Feb-28 01:34 015 3 gusting 7 13.3
2017-Feb-28 00:34 045 3 gusting 9 13.3
2017-Feb-27 23:34 046 3 gusting 8 14.4
2017-Feb-27 22:34 081 3 gusting 7 15.0
2017-Feb-27 21:34 020 3 gusting 8 15.6
2017-Feb-27 20:34 022 3 gusting 6 15.0